User: anonymous
Location: NJAA Observatory
(40.6819°N, 74.8979°W)
Time: 12:32:22
(UTC-04:00)
Language:

Landsat 5 - Orbit

View from above orbital plane
View from above orbital plane
View from above satellite
View from above satellite

Ground track
Ground track

The orbit data is extracted from the following two-line orbital elements,

1 14780U 84021A   14232.31962155  .00000566  00000-0  62265-4 0  3951
2 14780 098.0521 310.7321 0094594 323.0988 076.2061 14.88797304622168
Epoch (UTC): 20 August 2014 07:40:15
Eccentricity: 0.0094594
inclination: 98.0521°
perigee height: 535 km
apogee height: 668 km
right ascension of ascending node: 310.7321°
argument of perigee: 323.0988°
revolutions per day: 14.88797304
mean anomaly at epoch: 76.2061°
orbit number at epoch: 62216

The dashed part of the orbit path shows where the satellite is in the earth's shadow,  

DLR